Location: Songkhla
(7.2000°N, 100.6000°E)
Time: 04:25:05
(UTC+07:00)

BRICSAT 2 - Pass Details

Date: 24 June 2021
Orbit: 295 x 638 km, 28.5° (Epoch: 28 July)

Event Time Altitude Azimuth Distance (km) Brightness Sun altitude
Rises 09:57:22 0° 254° (WSW) 2,237 ? 52.1°
Reaches altitude 10° 09:59:39 10° 263° (W) 1,322 ? 52.6°
Maximum altitude 10:02:23 34° 330° (NNW) 572 ? 53.2°
Drops below altitude 10° 10:04:54 10° 39° (NE) 1,204 ? 53.8°
Sets 10:06:49 0° 49° (NE) 1,966 ? 54.2°
